Regional Weather Roundup
Issued by NWS Charleston, WV

Current Version | Previous Version | Text Only | Print | Product List | Glossary On
Versions: 1 2 3 4 5 6 7 8 9 10 11 12 13 14 15 16 17 18 19 20 21 22 23 24 25 26 27
000
ASUS41 KRLX 302010
RWRRLX
West Virginia Regional Weather Roundup
National Weather Service Charleston WV
400 PM EDT MON MAY 30 2016

Note: "fair" indicates few or no clouds below 12,000 feet with no
significant weather and/or obstructions to visibility.

WVZ003-302100-
Northern Panhandle of West Virginia

CITY           SKY/WX    TMP DP  RH WIND       PRES   REMARKS
WHEELING         N/A     82  61  48 NW10      30.00F
$$

WVZ009-302100-
Northwest West Virginia

CITY           SKY/WX    TMP DP  RH WIND       PRES   REMARKS
PARKERSBURG      N/A     82  65  56 VRB3      30.02F
$$

WVZ006-302100-
Western West Virginia

CITY           SKY/WX    TMP DP  RH WIND       PRES   REMARKS
HUNTINGTON       N/A     83  62  49 N7        30.00F
$$

WVZ015-302100-
West Central West Virginia

CITY           SKY/WX    TMP DP  RH WIND       PRES   REMARKS
CHARLESTON     PTSUNNY   85  61  44 NW9       29.99F
$$

WVZ022-031-302100-
North Central West Virginia

CITY           SKY/WX    TMP DP  RH WIND       PRES   REMARKS
CLARKSBURG     PTSUNNY   74  64  71 E5        30.00F
MORGANTOWN       N/A     80  58  46 VRB3      30.01F
$$

WVZ025-035-042-045-302100-
Southern West Virginia

CITY           SKY/WX    TMP DP  RH WIND       PRES   REMARKS
BECKLEY          N/A     78  57  48 N14       30.04F
LOGAN          PTSUNNY   82  63  51 CALM      30.01F
BLUEFIELD      PTSUNNY   76  57  51 VRB6      30.06F
LEWISBURG      PTSUNNY   79  58  47 SW7       30.02F
$$

WVZ047-302100-
Northern Mountains of West Virginia

CITY           SKY/WX    TMP DP  RH WIND       PRES   REMARKS
ELKINS           N/A     81  61  50 NW10G20   30.02F
$$

WVZ052-302100-
Eastern Panhandle of West Virginia

CITY           SKY/WX    TMP DP  RH WIND       PRES   REMARKS
MARTINSBURG      N/A     82  61  48 S6        29.94F
PETERSBURG       N/A     84  63  47 E5        29.96F
$$




USA.gov is the U.S. government's official web portal to all federal, state and local government web resources and services.